Wind_Speed
2 1 2 3 4 5 7 8 9 10 11 12 14 15 16 16 17 17 18 19 19 20 20 20 21 21 21 21 21 21 22 22 24 26 27 27 27 27 27 27 28 28 29
2 3 4 5 6 8 9 10 11 13 14 15 16 17 18 18 19 19 19 20 20 21 21 22 23 23 23 23 23 23 23 24 26 27 29 30 30 31 31 31 32 32 32
3 4 5 7 8 10 11 13 14 15 17 17 18 18 18 19 19 19 20 20 21 22 23 24 25 26 26 27 27 27 27 27 28 29 31 32 33 33 34 35 36 36 36
5 6 7 9 11 13 14 16 17 18 19 19 20 20 20 20 20 21 21 22 23 23 24 26 27 28 29 30 31 31 31 32 33 33 34 35 37 37 37 38 39 40 41
7 9 10 12 14 16 18 19 20 20 21 21 21 21 22 22 23 24 24 25 26 27 28 28 29 31 32 33 33 34 35 35 37 37 38 39 41 41 42 42 42 43 44
10 12 13 15 17 19 20 21 21 21 22 22 23 23 24 25 26 27 28 29 30 31 32 33 33 34 35 36 36 37 38 39 40 41 42 44 45 46 47 47 48 48 48
12 14 16 18 19 20 21 21 22 22 22 23 24 25 26 27 29 30 31 32 33 35 35 36 37 38 39 40 40 41 42 43 44 45 46 47 48 50 51 53 54 54 55
15 16 18 19 20 20 21 21 21 22 23 24 25 27 28 29 30 32 33 34 36 37 38 39 41 42 43 44 45 46 46 47 48 49 50 52 53 54 56 58 59 60 61
16 18 19 19 19 20 20 21 22 23 24 25 26 27 29 30 31 32 34 35 36 38 39 41 43 44 45 47 48 49 51 52 53 54 56 57 59 61 62 64 65 66 67
17 18 18 19 19 19 20 21 22 24 25 26 27 28 29 30 31 32 34 35 37 38 40 42 43 45 47 49 51 52 54 56 57 59 61 63 65 67 70 72 73 74 75
16 17 17 18 18 19 21 22 24 25 26 27 28 29 30 31 32 33 34 35 37 38 40 42 44 46 48 50 53 55 56 58 60 63 65 68 71 74 77 80 83 85 87
15 15 16 17 18 20 22 24 26 27 28 29 30 30 30 31 32 33 34 36 37 39 41 42 44 47 49 52 54 57 59 61 63 66 69 72 76 80 84 88 92 96 97
14 14 16 17 20 22 24 25 27 28 29 30 31 31 32 32 33 34 36 37 38 40 42 44 46 48 51 53 56 58 61 63 66 69 72 77 81 86 90 95 100 104 107
13 14 16 18 21 23 25 26 27 29 30 32 32 33 34 35 36 37 38 39 41 42 44 46 48 50 53 55 58 60 63 66 69 73 77 82 87 91 96 101 105 108 111
13 14 17 19 22 23 25 26 28 29 31 33 34 35 37 38 39 41 42 43 44 45 47 49 51 53 55 58 60 63 66 69 73 77 82 87 92 97 101 104 105 105 105
14 15 17 19 21 23 25 27 28 30 32 34 35 37 39 40 41 43 44 45 47 48 50 52 54 56 58 61 64 66 69 73 77 82 87 92 97 101 103 103 102 99 96
15 17 18 20 22 23 25 27 29 31 33 35 37 39 40 42 43 44 46 47 48 50 52 55 57 59 62 64 67 70 73 77 81 86 91 95 98 100 101 100 96 92 87
17 18 20 22 23 25 26 28 30 32 35 37 39 41 42 44 45 46 47 49 50 52 54 57 60 62 65 67 70 72 76 80 85 89 93 96 97 98 96 93 88 83 79
19 21 22 24 25 27 28 30 32 34 36 39 41 43 45 46 47 48 49 51 52 54 56 59 62 65 67 69 72 75 78 83 87 91 93 94 95 94 91 86 81 76 73
22 23 25 26 28 29 31 32 34 36 38 41 43 46 47 48 50 50 51 53 54 56 58 61 64 67 69 71 74 77 81 85 88 90 91 91 90 88 84 80 75 71 67
25 27 28 29 31 32 33 35 37 39 41 43 46 48 50 51 52 53 53 54 56 58 60 62 65 68 71 74 76 78 81 84 87 87 87 86 85 82 79 75 71 67 64
28 30 31 32 34 35 37 38 39 41 43 46 48 50 52 54 55 55 56 56 58 59 62 64 67 70 73 77 79 82 83 83 85 83 82 81 79 77 74 72 68 65 61
31 33 34 35 36 38 40 41 43 44 46 49 51 53 55 56 57 58 58 59 60 62 64 66 69 72 75 79 82 85 86 86 86 81 76 75 73 71 69 68 66 63 59
34 36 37 38 40 41 43 44 46 47 49 51 54 56 57 58 59 60 60 61 62 64 65 68 70 73 77 80 83 85 87 87 88 83 74 70 67 65 64 64 63 61 58
37 39 40 41 42 44 45 47 49 50 52 54 56 58 59 60 60 61 62 63 64 65 67 69 72 75 78 81 83 84 85 85 85 84 76 67 62 60 60 60 61 60 56
40 42 43 44 45 47 48 50 52 53 55 56 58 60 61 62 62 62 63 64 65 67 68 70 73 76 80 82 84 83 83 82 81 80 77 69 61 56 55 56 58 59 55
Wind_Direction
66 17 351 340 331 324 319 316 313 311 309 307 306 306 305 304 303 302 302 301 300 299 298 297 296 294 292 290 288 287 286 284 281 280 280 279 278 276 274 271 268 265 262
17 349 339 334 327 321 317 314 311 309 307 306 305 303 302 301 300 300 301 301 301 301 300 300 299 297 295 293 291 289 288 286 283 281 280 279 277 275 273 271 269 267 264
347 333 327 323 318 314 311 309 307 306 305 304 303 303 302 301 300 300 300 300 300 300 300 299 298 297 296 295 294 292 290 288 285 284 283 282 279 276 273 271 270 268 265
324 319 316 314 312 311 309 307 306 305 304 304 303 303 303 302 301 300 299 298 297 297 297 296 296 295 294 293 292 292 290 289 287 285 284 283 282 279 276 273 271 268 266
315 313 312 311 311 310 309 307 306 306 305 304 305 305 305 304 303 302 300 299 298 297 295 295 294 293 293 292 291 290 290 289 288 287 286 284 283 282 279 276 273 270 267
311 309 309 309 309 309 308 307 307 307 307 307 307 307 306 305 304 303 301 299 298 297 295 294 293 292 291 290 289 289 288 288 288 287 286 285 283 282 280 278 276 273 269
307 307 308 308 308 309 309 309 310 310 310 310 310 309 308 306 305 303 301 300 298 297 295 294 292 291 290 289 288 287 286 285 284 283 283 282 281 280 279 277 276 274 272
306 306 307 308 309 310 311 312 313 314 314 313 312 310 309 308 306 305 303 302 300 298 296 295 293 291 290 289 288 286 285 283 282 280 279 278 277 276 276 275 274 273 271
304 305 307 309 311 312 314 315 316 317 316 316 314 314 312 311 310 308 307 305 304 302 300 297 295 294 292 291 289 287 286 284 282 280 279 278 276 275 274 272 271 270 269
304 307 309 311 314 316 317 319 320 321 320 319 318 318 317 316 315 314 313 311 309 307 304 302 300 297 295 293 291 290 288 287 285 284 283 281 280 280 278 276 274 271 269
307 310 312 316 318 320 322 323 324 323 323 321 320 319 319 318 318 317 316 315 314 312 309 307 304 302 300 297 295 293 292 290 289 288 287 286 285 285 283 282 279 277 273
310 313 317 321 323 325 325 325 324 323 322 321 319 318 318 318 318 318 318 317 316 315 314 312 310 307 305 302 300 298 296 294 293 292 291 290 290 289 288 286 284 281 277
314 319 323 325 326 326 326 325 324 322 321 319 318 317 317 317 317 317 317 317 317 317 317 316 314 312 309 307 304 302 300 298 297 296 296 295 295 294 291 290 287 283 278
318 323 326 327 327 327 327 326 324 323 321 319 318 317 317 316 315 315 315 315 316 317 317 317 316 315 313 310 308 306 304 302 302 301 301 300 299 297 295 292 289 285 280
319 324 328 328 328 328 329 328 327 325 323 321 319 318 317 316 314 314 313 314 314 315 316 317 317 316 315 313 311 309 308 307 306 305 305 304 303 301 299 295 291 287 281
319 323 325 326 328 330 331 331 330 329 327 325 323 322 320 319 317 314 313 313 314 314 315 316 316 316 316 315 314 313 311 310 310 309 309 308 307 304 302 298 294 288 282
313 317 321 324 328 330 330 330 330 330 329 328 326 325 323 321 319 317 315 314 314 314 315 316 317 317 317 317 317 315 314 314 313 312 312 311 309 307 304 300 296 290 283
307 312 317 322 325 327 328 328 329 329 329 329 328 326 325 323 321 319 317 316 315 315 315 316 317 318 319 319 319 318 317 316 315 315 314 313 311 308 305 302 297 292 285
302 308 312 316 319 322 324 326 326 327 328 329 329 328 327 325 323 321 319 317 317 316 316 317 318 319 320 320 321 320 319 318 318 317 316 315 312 310 307 303 299 294 288
298 303 307 311 315 317 320 322 323 324 325 327 328 328 328 326 324 322 320 318 318 317 317 318 319 320 321 322 322 322 322 321 320 319 318 316 313 311 308 305 302 298 293
296 300 304 308 311 314 317 319 320 321 322 323 325 326 327 326 324 323 321 319 318 318 318 319 320 322 323 323 324 324 323 322 321 321 319 317 314 312 310 308 306 303 299
293 296 300 305 309 312 314 317 318 319 320 321 323 323 325 325 324 323 321 319 319 319 319 320 321 323 324 325 325 325 325 324 324 323 321 319 316 314 312 311 310 309 306
290 295 298 302 306 309 312 314 316 317 318 319 321 322 323 324 323 322 321 319 319 319 320 321 323 324 325 326 326 325 326 326 326 326 323 320 317 316 314 313 312 313 311
289 293 297 300 303 306 309 311 314 315 316 318 319 320 321 322 322 321 320 319 319 319 321 322 324 325 326 327 326 326 326 326 327 328 327 323 320 318 315 314 315 315 315
289 292 295 298 300 303 306 308 311 313 314 316 318 319 320 320 321 320 320 319 319 320 322 323 325 326 327 327 327 327 326 326 327 328 329 327 324 320 317 316 315 317 318
288 290 293 296 298 300 303 306 308 310 312 315 316 317 319 319 319 319 319 319 320 321 322 324 326 326 327 327 327 327 327 327 327 327 328 329 328 324 319 317 316 318 319
Height
5874 5874 5873 5873 5873 5873 5873 5872 5872 5871 5871 5870 5869 5869 5868 5867 5866 5865 5865 5864 5863 5863 5862 5862 5862 5862 5862 5862 5862 5863 5864 5864 5864 5863 5863 5864 5866 5867 5869 5870 5871 5873 5875
5873 5873 5872 5872 5872 5872 5871 5871 5870 5869 5869 5868 5867 5866 5865 5864 5863 5862 5861 5860 5859 5859 5858 5857 5857 5856 5856 5857 5857 5858 5858 5859 5858 5858 5858 5859 5860 5861 5863 5864 5866 5867 5869
5872 5872 5871 5871 5871 5870 5869 5869 5868 5867 5866 5865 5864 5862 5861 5860 5859 5858 5857 5856 5856 5855 5854 5853 5852 5851 5851 5851 5851 5851 5852 5852 5851 5852 5852 5852 5853 5855 5856 5858 5859 5861 5862
5871 5871 5870 5870 5869 5868 5867 5866 5865 5864 5862 5861 5860 5859 5857 5856 5855 5854 5853 5852 5852 5851 5850 5848 5847 5846 5845 5845 5844 5844 5844 5844 5844 5845 5845 5845 5845 5847 5848 5850 5852 5854 5855
5870 5869 5869 5868 5867 5866 5865 5863 5862 5860 5859 5857 5856 5854 5853 5852 5851 5850 5849 5848 5847 5846 5845 5843 5842 5841 5840 5839 5838 5837 5836 5836 5836 5836 5836 5836 5837 5837 5839 5841 5843 5845 5847
5868 5868 5867 5866 5864 5863 5861 5860 5858 5856 5855 5853 5851 5850 5848 5847 5846 5844 5843 5842 5841 5840 5838 5837 5836 5834 5833 5832 5830 5829 5828 5828 5827 5827 5826 5827 5827 5827 5828 5829 5832 5834 5836
5867 5866 5864 5863 5861 5860 5858 5856 5854 5852 5850 5848 5847 5845 5843 5842 5840 5839 5837 5835 5834 5832 5831 5829 5828 5826 5825 5823 5822 5821 5820 5819 5818 5817 5817 5816 5816 5816 5817 5818 5819 5821 5824
5865 5863 5862 5860 5858 5856 5854 5852 5850 5848 5846 5844 5842 5840 5838 5836 5834 5832 5830 5828 5826 5824 5822 5820 5819 5817 5815 5813 5812 5810 5809 5808 5807 5806 5806 5805 5805 5805 5804 5805 5806 5807 5809
5862 5860 5859 5857 5855 5853 5851 5849 5847 5844 5842 5840 5838 5835 5833 5830 5828 5825 5823 5820 5818 5815 5813 5811 5808 5806 5804 5802 5800 5798 5796 5795 5793 5792 5791 5790 5789 5789 5789 5790 5791 5792 5793
5859 5857 5856 5854 5852 5850 5848 5845 5843 5840 5838 5835 5833 5830 5827 5824 5821 5818 5815 5812 5809 5806 5803 5800 5798 5795 5792 5789 5787 5784 5782 5779 5777 5775 5773 5772 5770 5769 5768 5768 5769 5771 5773
5856 5854 5852 5851 5849 5847 5844 5842 5839 5836 5834 5831 5828 5824 5821 5818 5815 5811 5808 5804 5801 5797 5794 5790 5787 5783 5780 5776 5773 5770 5766 5763 5761 5758 5755 5752 5749 5747 5744 5743 5742 5743 5745
5853 5851 5849 5847 5845 5843 5841 5838 5835 5832 5829 5826 5823 5819 5816 5812 5808 5804 5801 5797 5793 5789 5784 5780 5776 5772 5768 5763 5759 5755 5751 5747 5743 5739 5735 5731 5727 5723 5719 5715 5713 5711 5711
5850 5848 5846 5844 5842 5840 5837 5834 5831 5828 5824 5821 5817 5813 5810 5806 5802 5798 5793 5789 5784 5780 5775 5770 5765 5760 5756 5751 5745 5740 5735 5730 5724 5719 5714 5709 5703 5698 5691 5685 5679 5674 5672
5847 5845 5843 5841 5839 5836 5833 5830 5826 5823 5819 5815 5811 5807 5803 5799 5794 5790 5785 5780 5775 5770 5765 5760 5755 5749 5743 5737 5731 5725 5718 5712 5705 5699 5692 5684 5677 5669 5661 5652 5643 5634 5628
5843 5842 5840 5838 5835 5832 5829 5825 5822 5818 5814 5810 5805 5800 5796 5791 5786 5781 5776 5771 5766 5761 5755 5750 5744 5737 5731 5724 5717 5710 5702 5694 5686 5677 5668 5658 5648 5637 5626 5613 5602 5592 5585
5840 5839 5837 5834 5831 5828 5824 5821 5817 5813 5808 5804 5799 5794 5788 5783 5778 5772 5767 5762 5756 5751 5745 5739 5732 5725 5718 5710 5702 5693 5684 5675 5666 5655 5644 5632 5619 5604 5589 5574 5561 5550 5542
5837 5835 5832 5830 5827 5823 5819 5816 5812 5807 5803 5798 5792 5787 5781 5775 5769 5764 5758 5752 5746 5740 5734 5727 5719 5712 5704 5696 5687 5677 5666 5655 5644 5632 5619 5605 5589 5572 5554 5538 5523 5513 5505
5833 5830 5828 5825 5822 5818 5814 5810 5806 5802 5797 5791 5786 5780 5774 5768 5761 5755 5749 5742 5736 5729 5722 5714 5707 5699 5690 5681 5672 5660 5649 5637 5623 5609 5594 5577 5559 5541 5523 5506 5492 5481 5473
5828 5826 5823 5820 5817 5813 5809 5805 5800 5795 5790 5785 5779 5773 5766 5760 5753 5746 5739 5732 5725 5717 5710 5702 5694 5685 5676 5666 5656 5645 5631 5618 5602 5585 5568 5549 5530 5511 5494 5479 5465 5454 5445
5824 5821 5818 5815 5811 5807 5803 5798 5793 5788 5783 5777 5771 5765 5758 5751 5744 5737 5729 5721 5713 5705 5697 5689 5680 5670 5661 5651 5640 5628 5613 5597 5579 5561 5542 5523 5503 5484 5468 5454 5441 5430 5421
5819 5816 5812 5809 5805 5800 5796 5791 5786 5781 5775 5770 5763 5756 5749 5742 5735 5727 5719 5710 5702 5694 5685 5676 5666 5656 5645 5634 5624 5613 5600 5581 5560 5540 5519 5499 5479 5461 5445 5431 5419 5408 5398
5813 5810 5806 5802 5798 5793 5789 5784 5779 5773 5767 5761 5754 5747 5740 5732 5724 5716 5708 5699 5690 5682 5672 5663 5653 5641 5629 5616 5605 5593 5582 5569 5547 5524 5501 5478 5458 5441 5426 5412 5400 5389 5378
5806 5803 5799 5795 5790 5786 5781 5776 5771 5765 5759 5752 5745 5738 5730 5722 5714 5705 5696 5687 5678 5669 5659 5649 5638 5626 5614 5599 5584 5570 5556 5544 5529 5512 5489 5465 5443 5426 5410 5396 5384 5372 5361
5799 5796 5792 5787 5783 5778 5772 5767 5762 5756 5750 5743 5736 5728 5720 5712 5703 5694 5685 5676 5666 5656 5646 5635 5623 5611 5598 5584 5568 5550 5533 5515 5500 5489 5476 5452 5432 5414 5397 5382 5369 5358 5347
5792 5788 5784 5779 5775 5769 5764 5759 5753 5747 5740 5733 5725 5717 5709 5701 5692 5683 5674 5664 5654 5644 5633 5621 5608 5595 5581 5567 5551 5534 5516 5497 5477 5460 5452 5440 5421 5402 5385 5370 5357 5345 5335
5783 5779 5775 5771 5766 5760 5755 5749 5743 5737 5730 5722 5714 5706 5698 5689 5680 5671 5662 5652 5641 5631 5619 5607 5594 5580 5566 5550 5534 5517 5499 5481 5463 5443 5429 5419 5408 5393 5375 5360 5345 5333 5324